Miscellaneous Local Product
Issued by NWS Hastings, NE

Home | Current Version | Previous Version | Text Only | Print | Product List | Glossary Off
Versions: 1 2 3 4 5 6 7 8 9 10 11 12 13 14 15 16 17 18 19 20 21 22 23 24 25 26 27 28 29 30 31 32 33 34 35 36 37 38 39 40 41 42 43 44 45 46 47 48 49 50

000
AXUS43 KGID 030902
MISGRI

GID CWA HOURLY WEATHER ROUNDUP
NATIONAL WEATHER SERVICE HASTINGS NE
300 AM CST SAT DEC 03 2016

NOTE: "FAIR" INDICATES FEW OR NO CLOUDS BELOW 12,000 FEET WITH NO
SIGNIFICANT WEATHER AND/OR OBSTRUCTIONS TO VISIBILITY.

...SOUTH CENTRAL NEBRASKA...

CITY           SKY/WX    TMP DP  RH WIND       PRES   REMARKS
GRAND ISLAND   CLOUDY    26  23  88 S6        30.29F WCI  19
HASTINGS       CLOUDY    28  23  81 S6        30.30F WCI  22
KEARNEY        CLOUDY    28  23  80 SW5       30.29F WCI  23
ORD            NOT AVBL
YORK           CLOUDY    23  23 100 CALM      30.31S
AURORA         PTCLDY    23  22  93 SW5       30.29F WCI  17
LEXINGTON      CLOUDY    32  27  81 S5        30.26F WCI  27
HOLDREGE       CLOUDY    25  21  85 S3        30.27F
HEBRON         CLOUDY    26  23  88 CALM      30.32F

...NEBRASKA PANHANDLE...

CITY           SKY/WX    TMP DP  RH WIND       PRES   REMARKS
CHADRON        NOT AVBL
ALLIANCE       NOT AVBL
SCOTTSBLUFF    CLOUDY    28  20  71 S8        30.11  WCI  20
SIDNEY         NOT AVBL

...WESTERN AND NORTH CENTRAL NEBRASKA...

CITY           SKY/WX    TMP DP  RH WIND       PRES   REMARKS
VALENTINE      NOT AVBL
AINSWORTH      CLOUDY    27  24  89 S5        30.18F WCI  21
ONEILL         CLEAR     24  22  93 S7        30.25S WCI  16
BROKEN BOW     NOT AVBL
NORTH PLATTE   CLOUDY    32  24  72 VRB5      30.23  WCI  27
MCCOOK         NOT AVBL

...EASTERN NEBRASKA...

CITY           SKY/WX    TMP DP  RH WIND       PRES   REMARKS
NORFOLK        NOT AVBL
SO SIOUX CITY  CLOUDY    27  24  89 CALM      30.35S
COLUMBUS       CLEAR     21  18  86 CALM      30.33F
ALBION         PTCLDY    24  22  92 CALM      30.29F
OMAHA EPPLEY   NOT AVBL
OFFUTT AFB     PTCLDY    21  21  99 CALM      30.34F
MILLARD        CLEAR     26  24  93 CALM      30.34F
LINCOLN        NOT AVBL
NEBRASKA CITY  CLEAR     28  25  89 S5        30.34S WCI  22
BEATRICE       CLOUDY    29  26  89 SE3       30.33S
FALLS CITY       N/A    N/A N/A N/A MISG      30.36

...NORTHERN KANSAS...

CITY           SKY/WX    TMP DP  RH WIND       PRES   REMARKS
GOODLAND       CLOUDY    30  20  66 S8        30.20  WCI  22
HILL CITY      CLOUDY    29  24  82 CALM      30.27
NORTON         SUNNY     28  21  74 CALM      30.25F
PHILLIPSBURG   CLEAR     27  25  93 CALM      30.28F
SMITH CENTER   CLEAR     27  23  86 NE3       30.29F
BELOIT         CLOUDY    28  25  86 CALM      30.30S
HAYS           CLOUDY    34  26  72 NE5       30.26F WCI  30
RUSSELL        CLOUDY    32  26  78 NE6       30.25  WCI  26
CONCORDIA      PTCLDY    27  24  89 SE5       30.30F WCI  22
SALINA         CLOUDY    37  27  67 NE6       30.30  WCI  32
TOPEKA         CLOUDY    30  24  78 CALM      30.34



USA.gov is the U.S. government's official web portal to all federal, state and local government web resources and services.